Hourly Data Report for October 06, 2013

All times are specified in Local Standard Time (LST). Add 1 hour to adjust for Daylight Saving Time where and when it is observed.

QIKIQTARJUAQ A
NUNAVUT

67°32'48.000" N
64°01'54.000" W
5.50 m
2400577
YVM

Download Data

Hourly Data (October 2013)
Hourly Data Report for October 6, 2013
Temp Definition
°C
Dew Point Temp Definition
°C
Rel Hum Definition
%
Wind Dir Definition
10's deg

Wind Spd Definition
km/h
Visibility Definition
km
Stn Press Definition
kPa
Hmdx Definition


Wind Chill Definition


Weather Definition


TIME
00:00 Legend Double Dagger -6.7 -10.6 74 16 5 16.1 101.75   -9 LegendNANA
01:00 Legend Double Dagger -7.2 -10.9 75 15 9 16.1 101.76   -12 LegendNANA
02:00 Legend Double Dagger -8.2 -11.2 79 13 8 16.1 101.79   -12 LegendNANA
03:00 Legend Double Dagger -7.7 -11.1 77 14 8 16.1 101.82   -12 LegendNANA
04:00 Legend Double Dagger -8.8 -12.0 78 15 9 16.1 101.83   -13 LegendNANA
05:00 Legend Double Dagger -7.7 -11.3 75 15 8 16.1 101.86   -12 LegendNANA
06:00 Legend Double Dagger -7.4 -10.9 76 13 9 16.1 101.87   -12 LegendNANA
07:00 Legend Double Dagger -7.4 -10.5 79 19 13 16.1 101.91   -13 LegendNANA
08:00 Legend Double Dagger -5.7 -9.2 77 18 17 16.1 101.93   -12 LegendNANA
09:00 Legend Double Dagger -5.0 -9.3 72 18 22 16.1 101.93   -12 LegendNANA
10:00 Legend Double Dagger -4.2 -9.9 65 18 22 16.1 101.92   -11 LegendNANA
11:00 Legend Double Dagger -4.0 -9.3 67 19 26 16.1 101.91   -11 LegendNANA
12:00 Legend Double Dagger -3.5 -8.8 67 20 18 16.1 101.92   -9 LegendNANA
13:00 Legend Double Dagger -3.9 -9.8 64   0 16.1 101.97     LegendNANA
14:00 Legend Double Dagger -5.8 -10.6 69 13 9 16.1 101.99   -10 LegendNANA
15:00 Legend Double Dagger -6.3 -10.6 72 15 8 16.1 102.03   -10 LegendNANA
16:00 Legend Double Dagger -7.2 -10.8 76 13 9 16.1 102.06   -12 LegendNANA
17:00 Legend Double Dagger -7.1 -10.5 77 14 11 16.1 102.10   -12 LegendNANA
18:00 Legend Double Dagger -6.7 -10.2 76 14 11 16.1 102.12   -12 LegendNANA
19:00 Legend Double Dagger -6.7 -9.3 82 17 5 16.1 102.14   -9 LegendNANA
20:00 Legend Double Dagger -6.1 -8.3 85   0 16.1 102.17     LegendNANA
21:00 Legend Double Dagger -6.4 -9.1 82   0 16.1 102.17     LegendNANA
22:00 Legend Double Dagger -6.5 -9.3 81 15 5 16.1 102.16   -9 LegendNANA
23:00 Legend Double Dagger -7.0 -10.3 78 14 9 16.1 102.14   -11 LegendNANA

Notes on Data Quality.

Legend

  • E = Estimated
  • M = Missing
  • NA = Not Available
  • ‡ = Partner data that is not subject to review by the National Climate Archives
Date modified: